ZHONGXING-3A

Last updated on Tue Sep 22 2026 00:03:16 GMT+0000 (Coordinated Universal Time)

1 60179U 24122A 26264.65173980 -.00000317 00000+0 00000+0 0 9993 2 60179 0.0158 357.1942 0002435 219.6941 119.8453 1.00268125 8279
UTC large
Height (km)
Speed (km/s)
/
Latitude / Longitude
Inclination (degrees)
Orbital Period (minutes)
Azimuth
Elevation
Range (km)
Doppler Factor

Next 0 passes for location: London (51.5072 / 0.1276)

No passes found over London.
ZHONGXING-3A